Regional Weather Roundup
Issued by NWS Cleveland, OH

Home | Current Version | Previous Version | Text Only | Print | Product List | Glossary On
Versions: 1 2 3 4 5 6 7 8 9 10 11 12 13 14 15 16 17 18 19 20 21 22 23 24 25 26 27 28 29 30 31 32 33 34 35 36 37 38 39 40 41 42 43 44 45 46 47 48 49 50
000
ASUS41 KCLE 240312
RWRCLE
OHIO REGIONAL WEATHER ROUNDUP
NATIONAL WEATHER SERVICE WILMINGTON, OH
1100 PM EDT SAT JUL 23 2016

NOTE: "FAIR" INDICATES FEW OR NO CLOUDS BELOW 12,000 FEET WITH NO
SIGNIFICANT WEATHER AND/OR OBSTRUCTIONS TO VISIBILITY.

OHZ001>008-015>018-024>027-034-035-043-044-240400-
   NORTHWEST OHIO

CITY           SKY/WX    TMP DP  RH WIND       PRES   REMARKS
DEFIANCE       FAIR      78  71  79 S5        29.99R
FINDLAY        FAIR      77  71  82 S5        29.99R
TOLEDO EXPRESS FAIR      76  73  91 CALM      29.98R
TOLEDO EXEC    FAIR      81  68  64 SE5       29.99R
LIMA           FAIR      79  74  84 CALM      30.01R
$$

OHZ009>014-019>023-028>033-038-089-240400-
   NORTHEAST OHIO

CITY           SKY/WX    TMP DP  RH WIND       PRES   REMARKS
CLE-HOPKINS    FAIR      82  64  54 NE5       30.02R
CLE-LAKEFRONT  FAIR      80  64  58 NE6       29.99R
CUY CO. ARPT   PTCLDY    75  64  69 E5        30.02R
LORAIN-ELYRIA  FAIR      72  65  78 CALM      30.01R
ASHTABULA      FAIR      68  66  93 CALM      30.03R
AKRON-CANTON   FAIR      77  62  59 NE6       30.03R
WOOSTER        FAIR      72  68  87 CALM      30.03R
MANSFIELD      FAIR      76  70  82 S3        30.04R
YOUNGSTOWN     FAIR      70  62  76 E3        30.03R
$$

OHZ042-051>053-060>062-070>072-077>081-240400-
  SOUTHWEST OHIO

CITY           SKY/WX    TMP DP  RH WIND       PRES   REMARKS
CINC-COVINGTON FAIR      77  74  90 CALM      30.02R
CINC-LUNKEN    FAIR      78  75  90 CALM      30.00R
HAMILTON       FAIR      77  72  84 CALM      30.01R
DAYTON         FAIR      78  73  84 W5        30.03R
WRIGHT-PAT AFB FAIR      79  75  89 CALM      30.01R
DAYTON GENERAL FAIR      80  71  74 CALM      30.02R
WILMINGTON     FAIR      78  75  90 CALM      30.02R
$$

OHZ036-037-039>041-045>050-054>059-063>069-073>076-082>088-240400-
  CENTRAL AND SOUTHEAST OHIO

CITY           SKY/WX    TMP DP  RH WIND       PRES   REMARKS
COLUMBUS       FAIR      81  73  76 CALM      30.00R
OSU AIRPORT    FAIR      81  72  74 CALM      30.01R
BOLTON FIELD   FAIR      76  74  93 CALM      30.02R
RICKENBACK AFB FAIR      80  74  82 CALM      30.00R
NEWARK         FAIR      76  74  93 CALM      30.01R
MARION         FAIR      79  71  76 CALM      30.02R
LANCASTER      FAIR      74  73  97 CALM      30.02R
ZANESVILLE     FAIR      80  72  76 SW5       30.01R
NEW PHILLY     FAIR      79  73  82 CALM      30.01R
$$



USA.gov is the U.S. government's official web portal to all federal, state and local government web resources and services.